This is the latest recevied weather packets stored in our database for station/object DF7ER-12. If no packets are shown the sender has not sent any weather packets the latest 10 day(s).
| Time | Temp. | Humidity | Pressure | Rain* | Wind** | Luminosity | Snow |
|---|---|---|---|---|---|---|---|
| 1787918478 | 28.33° C | 75% | 997.3 hPa | - | - | - | - |
| 1787918178 | 28.89° C | 74% | 997.3 hPa | - | - | - | - |
| 1787917878 | 28.89° C | 75% | 997.4 hPa | - | - | - | - |
| 1787917578 | 28.33° C | 74% | 997.3 hPa | - | - | - | - |
| 1787917278 | 28.89° C | 74% | 997.1 hPa | - | - | - | - |
| 1787916978 | 28.89° C | 74% | 997.1 hPa | - | - | - | - |
| 1787916678 | 28.89° C | 74% | 997.5 hPa | - | - | - | - |
| 1787916378 | 28.89° C | 74% | 997.6 hPa | - | - | - | - |
| 1787916078 | 28.89° C | 73% | 997.6 hPa | - | - | - | - |
| 1787915778 | 28.89° C | 74% | 997.4 hPa | - | - | - | - |
| 1787915478 | 29.44° C | 73% | 997.1 hPa | - | - | - | - |
| 1787915179 | 29.44° C | 72% | 997 hPa | - | - | - | - |
| 1787914879 | 29.44° C | 72% | 996.8 hPa | - | - | - | - |
| 1787914578 | 29.44° C | 72% | 996.7 hPa | - | - | - | - |
| 1787914279 | 29.44° C | 73% | 996.7 hPa | - | - | - | - |
| 1787913978 | 28.89° C | 73% | 996.7 hPa | - | - | - | - |
| 1787913679 | 27.78° C | 76% | 996.7 hPa | - | - | - | - |
| 1787913378 | 28.33° C | 75% | 996.8 hPa | - | - | - | - |
| 1787913078 | 29.44° C | 74% | 996.8 hPa | - | - | - | - |
| 1787912778 | 28.33° C | 75% | 996.9 hPa | - | - | - | - |
| 1787912478 | 28.33° C | 74% | 997.1 hPa | - | - | - | - |
| 1787912178 | 28.89° C | 73% | 997.2 hPa | - | - | - | - |
| 1787911887 | 28.89° C | 74% | 997.2 hPa | - | - | - | - |
| 1787911579 | 27.78° C | 77% | 996.9 hPa | - | - | - | - |
| 1787911278 | 28.33° C | 74% | 996.7 hPa | - | - | - | - |
* Rain since midnight (hover to see other rain measurements)
** Current wind speed in m/s (hover to see current wind gust speed)